Terminal Aerodrome Forecast
Issued by NWS Twin Cities, MN

Home | Current Version | Previous Version | Text Only | Print | Product List | Glossary Off
Versions: 1 2 3 4 5 6 7 8 9 10 11 12 13 14 15 16

000
FTUS43 KMPX 272343
TAFEAU
TAF
KEAU 272343Z 2800/2824 15005KT P6SM OVC012
     FM280600 VRB02KT 3SM BR SCT005 BKN012
     FM280800 VRB02KT 1/2SM FG VV002
     FM281300 15003KT 4SM BR SCT005 BKN012
     FM281700 16005KT P6SM SCT015=

USA.gov is the U.S. government's official web portal to all federal, state and local government web resources and services.